Location: Caseificio
(44.7500°N, 11.0500°E)
Time: 22:50:36
(UTC+00:00)

USA 32 - Pass Details

Date: 26 May 2022
Orbit: 775 x 784 km, 85.0° (Epoch: 25 June)

Event Time Altitude Azimuth Distance (km) Brightness Sun altitude
Exits shadow 00:34:56 48° 217° (SW) 1,024 4.2 -21.5°
Maximum altitude 00:36:16 66° 277° (W) 856 4.1 -21.5°
Drops below altitude 10° 00:41:31 10° 360° (N) 2,348 7.5 -21.1°
Sets 00:43:54 0° 3° (N) 3,280 8.5 -21.0°
